TimeMST,TemperatureF,Dew PointF,Humidity,Sea Level PressureIn,VisibilityMPH,Wind Direction,Wind SpeedMPH,Gust SpeedMPH,PrecipitationIn,Events,Conditions,WindDirDegrees,DateUTC
12:54 AM,23.0,7.0,50,30.38,10.0,SW,16.1,-,N/A,,Clear,230,2013-01-20 07:54:00
1:54 AM,23.0,6.1,48,30.37,10.0,WSW,12.7,-,N/A,,Clear,240,2013-01-20 08:54:00
2:54 AM,23.0,6.1,48,30.38,10.0,WSW,15.0,-,N/A,,Clear,240,2013-01-20 09:54:00
3:54 AM,18.0,3.9,54,30.40,10.0,WSW,11.5,-,N/A,,Clear,250,2013-01-20 10:54:00
4:54 AM,19.9,5.0,52,30.39,10.0,SW,8.1,-,N/A,,Clear,230,2013-01-20 11:54:00
5:54 AM,21.0,5.0,50,30.41,10.0,SW,16.1,-,N/A,,Clear,230,2013-01-20 12:54:00
6:54 AM,21.0,5.0,50,30.40,10.0,WSW,18.4,-,N/A,,Clear,250,2013-01-20 13:54:00
7:54 AM,24.1,5.0,44,30.39,10.0,WSW,18.4,-,N/A,,Clear,240,2013-01-20 14:54:00
8:54 AM,26.1,7.0,44,30.39,10.0,West,12.7,-,N/A,,Clear,280,2013-01-20 15:54:00
9:54 AM,27.0,8.1,45,30.44,10.0,Variable,3.5,-,N/A,,Clear,0,2013-01-20 16:54:00
11:54 AM,30.9,9.0,40,30.41,10.0,Calm,Calm,-,N/A,,Clear,0,2013-01-20 18:54:00
12:54 PM,34.0,10.9,38,30.35,10.0,West,17.3,-,N/A,,Clear,260,2013-01-20 19:54:00
1:54 PM,35.1,12.9,40,30.33,10.0,WSW,13.8,-,N/A,,Clear,250,2013-01-20 20:54:00
2:54 PM,36.0,15.1,43,30.29,10.0,West,18.4,26.5,N/A,,Clear,270,2013-01-20 21:54:00
3:54 PM,35.1,15.1,44,30.32,10.0,West,23.0,-,N/A,,Clear,260,2013-01-20 22:54:00
4:54 PM,32.0,14.0,48,30.35,10.0,WSW,18.4,-,N/A,,Clear,250,2013-01-20 23:54:00
5:54 PM,28.9,12.0,49,30.36,10.0,WSW,19.6,-,N/A,,Clear,250,2013-01-21 00:54:00
6:54 PM,28.0,10.9,49,30.37,10.0,West,20.7,-,N/A,,Clear,270,2013-01-21 01:54:00
7:54 PM,27.0,10.0,49,30.37,10.0,WSW,17.3,-,N/A,,Clear,250,2013-01-21 02:54:00
8:54 PM,25.0,10.0,53,30.38,10.0,West,18.4,-,N/A,,Clear,260,2013-01-21 03:54:00
9:54 PM,24.1,9.0,53,30.40,10.0,WNW,5.8,-,N/A,,Clear,290,2013-01-21 04:54:00
10:54 PM,23.0,9.0,55,30.39,10.0,West,15.0,-,N/A,,Clear,260,2013-01-21 05:54:00
11:54 PM,21.9,8.1,55,30.39,10.0,West,13.8,-,N/A,,Clear,260,2013-01-21 06:54:00